www.pogodaiklimat.ru

Погода и климат >> Архив погоды >> Индия >> Андхра-Прадеш >> Калингапатнам


ПОГОДА в Калингапатнаме

  • Прогноз погоды в Калингапатнаме
  • Монитор погоды в Калингапатнаме

АРХИВ ПОГОДЫ в Калингапатнаме

Время (UTC), дата Ветер
(напр.,м/с)
 
Видим.   Явления Облачность Т
(С)
Тd
(С)
f
(%)
Тe
(С)
Тes
(С)
Комфортность P
(гПа)
Po
(гПа)
Тmin
(С)
Tmax
(С)
R
(мм)
R24
(мм)
S
(см)
18 19.05 З 2 4000 м ясно +29.4 +28.6 95 +50 +50 опасность
перегрева
1007.1 1006.5
21 19.05 ЮЗ 3 4000 м ясно +28.8 +28.0 95 +47 +47 опасность
перегрева
1006.4 1005.8
00 20.05 З 2 10 км 4/3 600 м
[Sc Ac trans]
+28.4 +27.9 97 +47 +47 опасность
перегрева
1006.5 1005.9
03 20.05 ЮЗ 3 10 км 4/3 600 м
[Sc Ci fib]
+31.2 +27.6 81 +50 +56 опасность
перегрева
1008.9 1008.3 +28.0 +33.5
06 20.05 ЮЗ 7 10 км 3/0
[Ci fib]
+33.0 +28.4 77 +55 +60 опасность
перегрева
1008.0 1007.4
09 20.05 ЮЗ 7 10 км 3/0
[Ci fib]
+32.4 +29.6 85 +58 +61 опасность
перегрева
1005.5 1004.9
12 20.05 штиль 0 10 км 8/5 600 м
[Cb calv Ci fib]
+30.6 +28.1 87 +51 +52 опасность
перегрева
1006.8 1006.2 +33.0
15 20.05 ЮЗ 2 4000 м 5/3 600 м
[Sc Ci fib]
+29.8 +27.9 90 +49 +49 опасность
перегрева
1006.9 1006.3
18 20.05 ЮЗ 2 4000 м 5/3 600 м
[Sc Ci fib]
+29.6 +27.7 90 +48 +48 опасность
перегрева
1007.3 1006.7
21 20.05 штиль 0 4000 м 3/1 600 м
[Sc Ci fib]
+29.2 +27.5 91 +47 +47 опасность
перегрева
1005.7 1005.1
00 21.05 штиль 0 4000 м 3/0
[Ci fib]
+28.6 +27.8 95 +47 +47 опасность
перегрева
1006.4 1005.8
03 21.05 ЮЗ 3 10 км 5/3 600 м
[Sc Ci fib]
+31.2 +26.2 75 +47 +53 опасность
перегрева
1008.6 1008.0 +28.0 +33.0
06 21.05 ЮЗ 6 10 км 4/1 600 м
[Sc Ac trans Ci fib]
+32.2 +27.4 76 +51 +58 опасность
перегрева
1007.9 1007.3
09 21.05 З 6 10 км 4/3 600 м
[Sc Ci fib]
+32.4 +28.9 82 +56 +60 опасность
перегрева
1005.8 1005.2
12 21.05 ЮЗ 7 10 км 5/3 600 м
[Sc Ac trans]
+30.8 +28.1 86 +51 +52 опасность
перегрева
1005.2 1004.6 +33.6
15 21.05 ЮЗ 4 4000 м 6/4 600 м
[Sc Ac trans]
+29.8 +28.2 91 +50 +50 опасность
перегрева
1007.7 1007.1
18 21.05 ЮЗ 3 4000 м 5/4 600 м
[Sc Ci fib]
+29.2 +28.1 94 +49 +49 опасность
перегрева
1007.0 1006.4
21 21.05 ЮЗ 3 4000 м 4/3 600 м
[Sc Ac trans]
+28.8 +27.7 94 +47 +47 опасность
перегрева
1005.1 1004.5
00 22.05 ЮЗ 4 4000 м 5/4 600 м
[Sc Ci fib]
+28.2 +27.4 95 +45 +45 опасность
перегрева
1006.0 1005.4
03 22.05 ЮЗ 4 10 км 4/3 600 м
[Sc Ci fib]
+31.4 +27.0 78 +49 +54 опасность
перегрева
1007.7 1007.1 +27.8 +33.6
06 22.05 ЮЗ 5 10 км 4/3 600 м
[Sc Ci fib]
+32.6 +27.4 74 +51 +60 опасность
перегрева
1007.4 1006.8
09 22.05 ЮЗ 6 10 км 3/1 600 м
[Sc Ci fib]
+32.8 +28.7 79 +55 +61 опасность
перегрева
1005.1 1004.5
12 22.05 ЮЗ 6 10 км 6/3 600 м
[Sc Ac trans Ci fib]
+31.0 +27.7 83 +51 +51 опасность
перегрева
1004.6 1004.0 +33.2
15 22.05 Ю 6 4000 м ясно +29.6 +28.0 91 +49 +49 опасность
перегрева
1005.6 1005.0
18 22.05 З 5 4000 м ясно +29.4 +28.0 92 +49 +49 опасность
перегрева
1006.6 1006.0
21 22.05 ЮЗ 5 4000 м ясно +28.8 +27.7 94 +47 +47 опасность
перегрева
1005.3 1004.7
00 23.05 Ю 5 10 км 3/3 600 м
[Sc]
+28.6 +27.2 92 +45 +45 опасность
перегрева
1005.8 1005.2
03 23.05 ЮЗ 4 10 км 4/3 600 м
[Sc Ci fib]
+31.6 +27.2 78 +50 +55 опасность
перегрева
1007.9 1007.3 +28.3 +33.2
06 23.05 ЮЗ 5 10 км 5/3 600 м
[Sc Ac trans]
+32.2 +27.8 78 +52 +60 опасность
перегрева
1007.6 1007.0
09 23.05 ЮЗ 6 10 км 3/1 600 м
[Sc Ac trans]
+32.0 +28.5 82 +54 +59 опасность
перегрева
1005.2 1004.6
12 23.05 ЮЗ 3 10 км 3/0
[Ac trans Ci fib]
+30.2 +27.7 87 +49 +50 опасность
перегрева
1004.1 1003.5 +33.8
15 23.05 З 6 4000 м ясно +29.8 +27.9 90 +49 +49 опасность
перегрева
1005.8 1005.2
18 23.05 ЮЗ 7 4000 м ясно +29.4 +28.0 92 +49 +49 опасность
перегрева
1006.7 1006.1
21 23.05 З 5 4000 м 6/5 600 м
[Sc Ac trans]
+29.0 +27.9 94 +48 +48 опасность
перегрева
1005.8 1005.2
00 24.05 штиль 0 10 км 5/4 600 м
[Sc Ac trans]
+28.4 +27.0 92 +45 +45 опасность
перегрева
1006.3 1005.7
03 24.05 З 3 10 км 5/3 600 м
[Sc Ac trans Ci fib]
+31.6 +26.6 75 +49 +53 опасность
перегрева
1007.8 1007.2 +27.5 +33.8
06 24.05 ЮЗ 6 10 км 3/3 600 м
[Sc]
+33.6 +27.6 71 +53 +59 опасность
перегрева
1006.8 1006.2
09 24.05 ЮЗ 7 10 км 4/3 600 м
[Sc Ac trans]
+32.6 +28.0 77 +53 +56 опасность
перегрева
1004.2 1003.6
12 24.05 ЮЗ 7 10 км 4/3 600 м
[Sc Ci fib]
+31.2 +27.9 83 +51 +51 опасность
перегрева
1003.4 1002.8 +33.9
15 24.05 З 6 4000 м 8/4 600 м
[Sc Ac trans Ci fib]
+29.8 +28.0 90 +49 +49 опасность
перегрева
1005.0 1004.4
18 24.05 ЮЗ 4 4000 м 6/4 600 м
[Sc Ac trans]
+29.4 +28.3 94 +50 +50 опасность
перегрева
1005.3 1004.7
21 24.05 ЮЗ 4 4000 м 8/4 600 м
[Sc Ac trans Ci fib]
+29.0 +28.2 95 +48 +48 опасность
перегрева
1003.7 1003.1
00 25.05 ЮЗ 3 4000 м 6/4 600 м
[Sc Ac trans]
+28.6 +27.8 95 +47 +47 опасность
перегрева
1004.1 1003.5
03 25.05 ЮЗ 6 10 км 5/4 600 м
[Sc Ci fib]
+32.0 +27.3 76 +50 +53 опасность
перегрева
1005.2 1004.6 +28.2 +33.9
06 25.05 ЮЗ 4 10 км 4/3 600 м
[Sc Ci fib]
+33.2 +27.4 72 +52 +62 опасность
перегрева
1003.7 1003.1
09 25.05 Ю 7 4000 м 3/0
[Ac trans Ci fib]
+32.8 +28.2 77 +54 +57 опасность
перегрева
1001.5 1000.9
12 25.05 ЮЗ 7 10 км 5/4 600 м
[Sc Ci fib]
+31.2 +28.5 86 +53 +53 опасность
перегрева
1001.3 1000.7 +33.6
15 25.05 ЮЗ 4 4000 м 3/3 600 м
[Sc]
+29.6 +28.8 95 +51 +51 опасность
перегрева
1002.4 1001.8
18 25.05 З 6 4000 м 5/5 600 м
[Sc]
+29.4 +28.9 97 +51 +51 опасность
перегрева
1003.2 1002.6
21 25.05 З 4 4000 м 6/5 600 м
[Sc Ac trans]
+29.6 +28.8 95 +51 +51 опасность
перегрева
1001.6 1001.0
00 26.05 З 5 10 км 8/5 600 м
[Sc Ac trans]
+29.6 +28.2 92 +49 +49 опасность
перегрева
1002.4 1001.8
03 26.05 ЮЗ 4 10 км 8/4 600 м
[Sc Ac trans Ci fib]
+30.6 +28.1 87 +51 +54 опасность
перегрева
1004.6 1004.0 +28.7 +33.6
06 26.05 ЮЗ 6 10 км 5/4 600 м
[Sc Ci fib]
+33.8 +27.5 70 +53 +58 опасность
перегрева
1003.5 1002.9
09 26.05 ЮЗ 7 10 км 4/3 600 м
[Sc Ci fib]
+32.8 +28.5 78 +55 +58 опасность
перегрева
1001.1 1000.5
12 26.05 СВ 7 4000 м гроза, ливневой дождь 10/6 600 м
[Cb cap Ac As]
+24.2 +23.6 96 +33 +33 очень
душно
1005.0 1004.3 +34.2 11
15 26.05 ЮЗ 4 4000 м {гроза, дождь} 8/5 600 м
[Cb cap Ac As]
+26.4 +24.4 89 +37 +37 очень
душно
1003.2 1002.5 13

 

Местоположение метеостанции Калингапатнам (Андхра-Прадеш, Индия): широта 18.33 долгота 84.13 высота над уровнем моря 7 м.

В архиве по умолчанию представлена погода в Калингапатнаме за последнюю неделю. Архивные данные за месяц целиком и за предыдущие месяцы, начиная с января 2011 года, Вы можете получить, выбрав интересующий диапазон дат из раскрывающегося списка и нажав кнопку "Ввод!".


*Определитесь, кто Вы:
робот инопланетянин человек

Внимание! Время в таблицах - всемирное. Для получения местного времени необходимо прибавить поправку, которая равна 5.5 ч.

Смотрите также архив погоды в соседних городах и на ближайших метеорологических станциях:

Погода в Висакхапатнам Уолт (Андхра-Прадеш, Индия) (112 км)
Погода в Висакхапатнаме (Андхра-Прадеш, Индия) (117 км)
Погода в Гопалпере (Орисса, Индия) (131 км)
Погода в Корапуте (Орисса, Индия) (158 км)
Погода в Туни (Андхра-Прадеш, Индия) (200 км)
Погода в Бхаванипатне (Орисса, Индия) (203 км)
Погода в Титилагаре (Орисса, Индия) (236 км)
Погода в Джагдалпуре (Чхаттисгарх, Индия) (236 км)
Погода в Пхулбани (Орисса, Индия) (240 км)
Погода в Пури (Орисса, Индия) (241 км)

Пояснения к столбцам:

Ветер - указаны скорость ветра в м/с - средняя за 10 мин, порывы в срок и между сроками (в фигурных скобках) и направление, откуда дует ветер: С - северный, СВ - северо-восточный, В - восточный, ЮВ - юго-восточный, Ю - южный, ЮЗ - юго-западный, З - западный, СЗ - северо-западный.
Видимость - горизонтальная дальность видимости в метрах или километрах. При видимости от 1 до 10 км при отсутствии осадков обычно наблюдается дымка, при ухудшении видимости до 1 км и менее - туман. В сухую погоду видимость может ухудшаться дымом, пылью или мглою.
Явления - указаны атмосферные явления, наблюдавшиеся в срок или в последний час перед сроком; фигурными скобками обозначены явления, наблюдавшиеся между сроками (за 1-3 часа до срока); квадратными скобками обозначены град или гололедные отложения с указанием их диаметра в мм.
Облачность - указаны через наклонную черту общая и нижняя облачность в баллах и высота нижней границы облаков в метрах; квадратными скобками обозначены формы облаков: Ci - перистые, Cs - перисто-слоистые, Cc - перисто-кучевые, Ac - высококучевые, As - высокослоистые, Sc - слоисто-кучевые, Ns - слоисто-дождевые, Cu - кучевые, Cb - кучево-дождевые. Подробнее классификацию облаков см. в Атласе облаков (PDF).
T - Температура воздуха - температура, измеренная на высоте 2 м над землей.
Td - Температура точки росы - температура, при понижении до которой содержащийся в воздухе водяной пар достигнет насыщения.
f - Относительная влажность воздуха - влажноcть воздуха, измеренная на высоте 2 м над землей.
Te - Эффективная температура - температура, которую ощущает одетый по сезону человек в тени. Характеристика душности погоды. При расчете учитывается влияние влажности воздуха и скорости ветра на теплоощущения человека.
Tes - Эффективная температура на солнце - температура, которую ощущает человек, с поправкой на солнечный нагрев. Характеристика знойности погоды. Зависит от высоты солнца над горизонтом, облачности и скорости ветра. Ночью, в пасмурную погоду, а также при ветре 12 м/с и более поправка равна нулю.
P - Атмосферное давление - приведенное к уровню моря атмосферное давление.
Po - Атмосферное давление - измеренное на уровне метеостанции атмосферное давление.
Tmin - Минимальная температура - минимум температуры воздуха на высоте 2 м над землей.
Tmax - Максимальная температура - максимум температуры воздуха на высоте 2 м над землей.
R - Количество осадков - Количество выпавших осадков за период времени, мм. При наведении курсора мыши на число - период времени, за который выпало указанное количество осадков.
R24 - Количество осадков - Количество выпавших осадков за 24 часа, мм.
S - Снежный покров - Высота снежного покрова, см. При наведении курсора мыши на число - состояние снежного покрова и степень покрытия местности в баллах.